Regional Weather Roundup
Issued by NWS Sioux Falls, SD

Home | Current Version | Previous Version | Graphics & Text | Print | Product List | Glossary Off
Versions: 1 2 3 4 5 6 7 8 9 10 11 12 13 14 15 16 17 18 19 20 21 22 23 24 25 26 27 28 29 30 31 32 33 34 35 36 37 38 39 40 41 42 43 44 45 46 47 48 49 50

000
ASUS43 KFSD 172302
RWRFSD

WEATHER ROUNDUP FOR SE SOUTH DAKOTA/SW MINNESOTA/NW IOWA
NATIONAL WEATHER SERVICE SIOUX FALLS SD
500 PM CST FRI NOV 17 2017

NOTE: "FAIR" INDICATES FEW OR NO CLOUDS BELOW 12,000 FEET WITH NO
SIGNIFICANT WEATHER AND OR OBSTRUCTIONS TO VISIBILITY.


SDZ038>040-050-052>070-180000-
SOUTHEAST SOUTH DAKOTA

CITY           SKY/WX    TMP DP  RH WIND       PRES   REMARKS
BROOKINGS      CLOUDY    39  32  76 N8        29.65R
CHAMBERLAIN    CLOUDY    45  37  72 NW8       29.66R
HURON          CLOUDY    43  31  62 N12       29.66R
MADISON        FAIR      41  39  93 N9        29.64R
MITCHELL       CLOUDY    44  33  65 N9        29.65R
SIOUX FALLS    LGT RAIN  47  36  65 N12G17    29.62R
WINNER         MOCLDY    45  35  68 N8        29.67R
YANKTON        LGT RAIN  44  39  82 NW13      29.63R
$$

MNZ071-072-080-081-089-090-097-098-180000-
SOUTHWEST MINNESOTA

CITY           SKY/WX    TMP DP  RH WIND       PRES   REMARKS
FAIRMONT       CLOUDY    42  39  89 NE3       29.58R
JACKSON        CLOUDY    43  36  75 N3        29.59R
LUVERNE        CLOUDY    43  32  65 N9G16     29.61R
MARSHALL       PTCLDY    39  33  79 N9        29.63S
MONTEVIDEO     PTCLDY    37  32  81 N7        29.65R
PIPESTONE      CLOUDY    39  30  70 N8        29.61R
REDWOOD FALLS  MOCLDY    42  33  70 N9        29.63R
WINDOM           N/A     45  28  53 NW12      29.61R
WORTHINGTON    CLOUDY    43  35  73 N13       29.61R
$$

IAZ001>003-012>014-020>022-031-032-NEZ013-014-SDZ071-180000-
NORTHWEST IOWA

CITY           SKY/WX    TMP DP  RH WIND       PRES   REMARKS
CHEROKEE       MOCLDY    51  45  80 N5        29.55R
DENISON        CLOUDY    52  52 100 CALM      29.54S FOG
ESTHERVILLE    CLOUDY    42  41  96 NE5       29.57R
LE MARS        PTCLDY    52  43  71 N6        29.57R
ORANGE CITY    PTCLDY    52  45  76 N7        29.57R
SHELDON        CLOUDY    46  39  76 N13G20    29.56R
SIOUX CITY     CLOUDY    50  38  63 NW7       29.54S
SPENCER        CLOUDY    48  43  82 NE8       29.56R
STORM LAKE     MOCLDY    48  46  93 CALM      29.54R FOG
$$

ABBREVIATIONS USED IN REMARKS
   TC - TEMPERATURE IN CELSIUS
  WCI - WIND CHILL INDEX
   HX - HEAT INDEX
  VSB - VISIBILITY





USA.gov is the U.S. government's official web portal to all federal, state and local government web resources and services.